Location: Newark
(55.7083°N, 13.1992°E)
Time: 22:50:31
(UTC+00:00)

Envisat - Pass Details

Date: 07 October 2022
Orbit: 763 x 765 km, 98.2° (Epoch: 08 December)

Event Time Altitude Azimuth Distance (km) Brightness Sun altitude
Rises 03:05:39 0° 18° (NNE) 3,249 6.8 -19.7°
Reaches altitude 10° 03:08:05 10° 25° (NNE) 2,318 6.1 -19.3°
Maximum altitude 03:12:57 44° 98° (E) 1,057 4.1 -18.7°
Drops below altitude 10° 03:17:48 10° 170° (S) 2,301 5.4 -18.0°
Sets 03:20:12 0° 177° (S) 3,222 6.1 -17.7°
